RH
47 47 44 46 45 45 45 48 54 81 84 75 46 44 42 41 39 34 30 34 52 59 61 66 66 68 71 71 70 69 68 69 70 68 67 66 65 65
52 51 51 52 49 48 48 48 51 59 86 52 46 44 43 40 38 38 40 42 43 43 65 67 66 70 70 72 70 68 69 70 69 69 66 65 66 65
57 53 54 54 54 54 56 55 54 57 72 57 50 44 40 43 45 46 48 49 51 50 66 66 69 70 72 67 66 69 71 70 68 70 69 69 66 65
58 55 58 59 58 51 36 30 28 27 32 48 48 43 44 47 50 50 52 54 55 57 68 67 69 72 70 66 69 72 73 67 74 72 70 69 67 67
57 59 61 50 29 27 25 27 32 34 34 40 50 49 49 52 54 55 56 55 58 59 50 68 71 65 66 71 72 72 67 72 73 73 72 70 69 69
59 56 44 27 26 29 31 35 41 46 47 45 52 54 58 62 60 62 64 67 59 50 51 64 36 35 48 71 69 60 75 75 78 76 73 71 70 69
35 31 33 34 36 37 35 44 47 48 47 48 56 62 60 62 69 72 72 69 65 64 60 52 44 39 46 55 51 66 78 83 82 78 74 74 74 74
39 42 49 46 38 31 30 29 31 32 45 60 69 69 69 70 67 71 83 89 92 71 73 61 61 49 59 63 68 79 87 86 82 78 80 79 79 78
68 58 40 35 39 55 83 80 72 75 70 70 70 70 72 71 78 80 84 80 74 67 73 80 68 69 67 64 60 87 87 84 78 80 82 80 78 78
54 39 39 52 53 51 56 64 67 68 69 69 73 78 81 81 78 76 72 70 69 72 79 86 76 80 81 73 64 75 86 77 84 83 80 81 81 81
46 44 51 59 76 52 54 68 73 73 75 74 74 73 67 66 86 75 72 87 95 90 82 96 86 92 87 69 66 73 73 84 89 84 85 86 84 82
59 59 60 78 82 69 64 69 72 72 75 80 74 63 63 74 76 80 95 94 100 82 88 92 87 93 92 76 78 73 70 73 86 87 90 90 86 88
70 71 71 80 81 86 82 81 73 83 83 81 68 72 76 78 79 77 77 80 82 90 85 93 93 91 96 95 86 82 79 80 69 68 68 73 94 88
75 75 80 82 83 82 82 86 85 83 79 68 75 80 77 75 75 76 76 78 79 83 80 82 91 91 100 97 93 86 89 89 77 80 77 82 81 89
77 74 82 84 85 80 85 83 74 67 70 78 80 80 80 75 74 77 77 87 90 80 69 74 81 85 93 99 100 100 98 93 78 76 84 86 89 74
80 80 79 82 76 85 73 68 70 77 81 82 85 80 77 79 81 85 83 80 83 73 64 69 75 87 98 96 100 100 98 100 84 77 88 95 80 74
78 82 84 77 73 71 72 74 77 82 82 82 79 82 87 88 80 78 80 83 99 100 86 68 72 84 90 91 100 93 90 92 83 89 95 100 83 74
75 76 78 73 72 75 78 80 82 87 82 80 80 83 86 80 82 83 79 91 100 100 100 84 92 98 86 80 77 80 82 89 93 93 95 100 99 84
76 80 74 75 79 81 82 81 83 83 82 81 80 81 82 84 90 88 84 97 100 100 90 94 99 100 94 92 76 80 88 92 91 100 93 94 100 87
75 76 80 81 82 83 84 83 84 82 81 94 97 96 96 98 98 92 93 100 96 96 98 92 93 94 99 94 96 89 75 88 97 100 97 90 87 87
79 81 82 84 86 85 84 83 85 88 100 90 89 92 98 99 93 91 96 100 96 98 97 91 93 96 89 93 96 89 85 78 93 98 98 100 98 94
84 84 87 87 87 86 86 88 88 86 87 92 96 100 100 100 100 100 100 100 100 100 100 98 91 84 92 100 99 96 94 88 68 73 82 90 99 95
87 87 90 89 88 88 88 87 85 86 89 93 97 98 98 99 100 99 100 96 98 100 100 100 93 89 94 100 100 96 98 90 96 87 76 70 74 79
Wind_Speed
22 21 20 18 18 19 23 27 19 4 2 9 6 8 5 0 6 10 11 10 8 9 9 9 12 12 14 15 14 18 20 19 19 21 20 20 23 23
23 21 19 17 16 15 17 16 14 10 3 6 5 9 3 2 5 8 9 7 9 10 8 10 12 11 14 14 16 18 17 18 20 20 20 22 22 24
24 22 19 17 17 14 11 12 12 9 10 5 8 5 1 1 4 6 8 7 10 12 10 14 11 13 13 16 18 18 18 19 20 19 21 22 25 25
26 22 21 18 16 14 12 11 9 8 8 7 6 2 1 2 2 4 3 6 10 10 13 12 13 12 16 17 17 16 17 20 18 20 22 24 24 24
26 23 21 18 17 14 11 10 7 7 6 7 5 3 2 2 2 2 3 10 12 14 17 12 12 18 17 17 17 17 20 18 19 22 23 22 24 26
20 18 18 15 15 13 9 6 6 6 6 5 4 2 1 2 4 5 8 12 17 17 10 11 20 18 18 17 19 20 17 20 22 21 21 22 25 26
18 16 15 12 9 7 6 8 7 6 5 4 3 1 2 4 5 7 12 16 18 8 12 24 24 23 22 21 21 21 23 22 20 18 21 25 26 28
21 15 10 8 7 9 10 8 6 6 6 5 3 2 3 4 7 9 11 14 5 9 22 28 24 27 23 22 25 24 21 18 16 21 25 25 28 29
20 18 17 16 13 12 10 9 7 5 3 3 2 2 3 5 9 13 13 12 15 19 19 21 26 24 24 31 26 20 16 15 23 26 25 27 28 30
20 21 17 16 14 12 11 9 8 7 4 3 2 2 4 8 10 9 11 14 16 19 19 16 18 23 30 28 16 13 11 24 25 24 27 29 27 29
24 20 19 17 12 11 11 11 9 7 5 2 1 4 7 7 6 10 13 12 10 14 15 11 16 30 25 14 13 7 27 23 24 25 28 25 25 28
22 20 18 16 12 10 10 9 7 5 2 1 4 6 5 6 10 9 7 11 10 10 4 20 19 19 13 11 10 29 32 25 26 28 24 22 25 28
25 20 16 14 12 9 6 5 5 3 3 4 4 4 6 7 10 11 11 11 12 12 20 16 15 20 11 21 19 27 24 31 33 30 22 27 26 26
21 19 17 13 10 9 6 4 4 3 2 2 4 6 8 10 11 11 10 11 13 16 19 18 19 22 20 23 23 21 31 29 29 26 27 32 32 28
19 19 16 12 10 7 6 6 2 1 1 1 4 6 8 12 11 11 11 14 16 17 19 16 18 19 21 22 24 27 29 22 20 26 33 33 34 32
18 15 13 12 9 11 8 5 3 2 1 2 4 8 11 12 13 13 17 21 24 24 20 18 17 17 21 24 26 27 27 17 32 35 34 34 33 31
20 17 15 12 12 11 8 5 4 4 3 4 7 9 12 14 16 17 20 22 21 20 23 21 21 22 22 22 25 28 31 32 33 34 34 29 34 31
17 15 13 13 12 10 7 5 4 3 5 7 7 9 13 16 18 19 20 20 21 17 20 26 27 27 23 19 20 28 28 28 31 32 30 26 26 31
16 15 15 13 12 9 5 4 3 4 5 6 8 11 15 16 16 19 20 21 17 18 25 25 24 23 14 9 27 19 26 30 28 27 29 28 27 32
15 16 15 12 10 8 5 2 2 4 6 8 9 11 12 15 17 19 21 23 21 21 19 21 22 24 19 18 28 37 25 26 26 27 30 31 30 29
15 14 13 11 9 6 4 2 2 4 7 11 14 14 13 15 17 19 20 17 19 19 19 20 24 25 29 29 20 24 31 28 23 24 27 23 23 24
15 14 11 9 7 4 1 1 3 6 10 12 12 13 15 14 14 15 19 23 22 20 22 26 28 32 27 22 21 25 27 32 30 24 21 18 20 9
14 12 9 6 4 2 1 2 5 7 10 11 12 13 14 15 15 20 21 21 24 23 24 26 31 28 26 24 23 25 30 32 29 32 30 22 17 19
Wind_Direction
178 173 165 161 164 169 171 170 154 148 172 173 160 156 148 327 332 342 351 1 15 11 4 358 349 344 345 343 345 343 338 338 337 335 334 333 330 330
171 165 159 156 154 155 164 171 173 148 142 155 159 157 145 337 347 355 4 3 8 8 2 357 342 335 338 339 333 333 336 334 331 330 329 328 327 325
166 168 158 158 151 149 156 152 146 146 123 126 149 154 141 21 356 3 357 354 355 359 347 342 335 332 329 332 330 329 330 329 328 328 327 324 321 320
166 166 157 155 146 146 150 130 128 125 138 149 161 146 99 9 353 353 346 334 341 338 338 338 326 328 327 325 327 327 325 326 326 323 322 320 319 318
165 166 156 153 146 148 140 135 140 129 137 156 156 153 141 78 66 55 325 318 325 330 334 332 332 326 328 326 327 324 323 324 320 317 317 316 316 317
151 158 156 153 151 146 141 146 163 150 145 148 134 147 177 34 4 5 335 323 321 326 326 328 329 328 329 325 323 323 324 320 316 316 315 315 316 315
147 152 147 144 146 135 150 167 153 163 166 136 136 208 352 9 0 336 326 331 331 337 332 331 332 329 330 327 327 325 320 318 316 317 316 315 313 312
149 148 148 151 176 175 179 170 176 177 160 148 136 44 359 338 328 331 331 330 326 331 327 320 326 322 327 326 324 315 317 319 320 321 319 316 314 313
172 171 170 170 177 164 149 148 138 149 140 119 126 282 293 328 326 320 319 317 308 317 318 313 320 316 324 323 327 316 320 324 323 321 321 319 316 313
170 175 176 165 170 165 158 150 165 152 136 89 88 32 346 332 317 316 320 316 312 315 326 299 314 319 319 324 333 322 325 324 322 321 321 320 316 315
170 175 179 167 159 159 155 162 155 139 131 119 345 305 307 312 335 313 323 333 324 320 326 329 321 321 318 321 328 301 321 323 319 320 319 318 318 316
164 165 167 155 145 153 161 160 143 143 155 308 322 323 324 323 320 327 341 340 329 326 307 331 318 336 322 314 304 322 325 327 320 319 319 320 322 320
158 157 155 152 151 146 148 153 130 147 149 322 347 14 344 335 319 315 326 325 321 302 309 318 308 319 300 304 308 313 319 316 326 326 327 327 322 318
156 156 155 156 155 144 149 121 161 167 277 342 349 346 342 342 346 341 335 330 325 312 318 315 299 305 298 298 299 308 312 317 321 317 325 325 324 321
155 158 160 158 149 141 125 149 161 250 222 10 349 346 347 338 335 338 337 330 322 315 319 319 310 308 303 289 292 304 312 316 325 320 321 324 322 327
150 160 162 153 148 136 136 127 113 152 101 33 1 347 343 348 349 351 346 344 335 328 329 328 325 322 311 307 304 298 304 300 312 320 320 318 323 325
157 157 155 149 140 139 133 133 117 109 66 5 353 359 351 349 346 347 345 339 329 311 320 331 333 329 321 313 297 297 302 303 311 311 316 313 319 324
163 161 157 153 153 153 149 123 100 57 10 358 357 349 348 346 342 336 333 331 324 311 312 328 328 329 324 318 310 302 304 304 308 312 314 308 310 319
161 160 153 151 149 142 128 94 67 19 355 336 338 349 345 335 325 327 329 328 316 307 317 323 325 322 310 304 314 312 307 307 310 305 310 307 300 310
160 155 150 147 141 138 133 105 36 1 341 334 335 331 328 322 321 323 324 322 313 312 314 319 317 319 301 302 308 306 318 306 303 298 298 308 307 308
153 148 146 147 142 142 142 105 348 336 334 331 326 322 321 320 318 317 315 314 317 316 309 309 307 317 311 314 306 303 314 324 312 302 303 298 294 304
154 148 148 151 152 144 147 348 325 328 334 336 332 326 328 330 323 311 320 320 320 309 302 305 318 323 321 312 298 302 307 315 328 327 320 304 291 295
154 155 154 154 160 205 309 315 318 323 324 318 319 323 323 316 308 314 322 319 318 312 310 309 319 326 318 309 301 302 307 313 316 322 324 327 325 307